| time (UTC) | temp F | wind direction | speed MPH | gust MPH | rain 1hr in | rain 24hr in | rain mn in | humidity % | barometer mb |
| 20260905164008 | 75 | 71 | 1.0 | 2.0 | 0.00 | 0.00 | 0.00 | 10 | 994.3 |
| 20260905154507 | 75 | 102 | 5.0 | 5.0 | 0.00 | 0.00 | 0.00 | 9 | 993.3 |
| 20260905154007 | 75 | 130 | 2.0 | 2.0 | 0.00 | 0.00 | 0.00 | 10 | 992.3 |
| 20260905145007 | 75 | 108 | 2.0 | 3.0 | 0.00 | 0.00 | 0.00 | 7 | 991.0 |
| 20260905134504 | 68 | 75 | 1.0 | 2.0 | 0.00 | 0.00 | 0.00 | 13 | 992.0 |
| 20260905124003 | 66 | 135 | 1.0 | 2.0 | 0.00 | 0.00 | 0.00 | 17 | 991.2 |
| 20260905115003 | 59 | 358 | 3.0 | 3.0 | 0.00 | 0.00 | 0.00 | 32 | 991.0 |
| 20260905113507 | 58 | 348 | 4.0 | 5.0 | 0.00 | 0.00 | 0.00 | 34 | 991.4 |
| 20260905113031 | 58 | 342 | 6.0 | 6.0 | 0.00 | 0.00 | 0.00 | 34 | 991.1 |
| 20260905105503 | 57 | 344 | 7.0 | 8.0 | 0.00 | 0.00 | 0.00 | 38 | 989.2 |
| 20260905105008 | 58 | 348 | 6.0 | 7.0 | 0.00 | 0.00 | 0.00 | 35 | 990.5 |
| 20260905101004 | 61 | 357 | 3.0 | 4.0 | 0.00 | 0.00 | 0.00 | 25 | 991.3 |
| 20260905100002 | 61 | 358 | 3.0 | 3.0 | 0.00 | 0.00 | 0.00 | 23 | 992.4 |
| 20260905093506 | 60 | 349 | 3.0 | 4.0 | 0.00 | 0.00 | 0.00 | 25 | 991.7 |
| 20260905091509 | 62 | 360 | 2.0 | 3.0 | 0.00 | 0.00 | 0.00 | 23 | 991.2 |
| 20260905084006 | 62 | 2 | 3.0 | 3.0 | 0.00 | 0.00 | 0.00 | 21 | 991.6 |
| 20260905063010 | 62 | 166 | 1.0 | 2.0 | 0.00 | 0.00 | 0.00 | 26 | 991.0 |
| 20260905061008 | 63 | 24 | 1.0 | 2.0 | 0.00 | 0.00 | 0.00 | 23 | 992.5 |
| 20260905055506 | 63 | 201 | 1.0 | 2.0 | 0.00 | 0.00 | 0.00 | 23 | 992.1 |
| 20260905053510 | 63 | 210 | 1.0 | 2.0 | 0.00 | 0.00 | 0.00 | 23 | 992.0 |
| 20260905034010 | 63 | 206 | 2.0 | 3.0 | 0.00 | 0.00 | 0.00 | 20 | 992.2 |
| 20260905032008 | 63 | 197 | 5.0 | 6.0 | 0.00 | 0.00 | 0.00 | 19 | 991.7 |
| 20260905030506 | 63 | 192 | 4.0 | 6.0 | 0.00 | 0.00 | 0.00 | 18 | 990.8 |
| 20260905023005 | 63 | 109 | 1.0 | 2.0 | 0.00 | 0.00 | 0.00 | 20 | 991.9 |
| 20260905022529 | 63 | 205 | 2.0 | 4.0 | 0.00 | 0.00 | 0.00 | 19 | 991.1 |
| 20260905021509 | 63 | 192 | 5.0 | 9.0 | 0.00 | 0.00 | 0.00 | 16 | 991.2 |
| 20260904215507 | 74 | 167 | 2.0 | 4.0 | 0.00 | 0.00 | 0.00 | 6 | 992.3 |
| 20260904201508 | 78 | 86 | 2.0 | 2.0 | 0.00 | 0.00 | 0.00 | 11 | 991.6 |
| 20260904195005 | 75 | 81 | 2.0 | 3.0 | 0.00 | 0.00 | 0.00 | 12 | 991.9 |
| 20260904180005 | 77 | 166 | 1.0 | 3.0 | 0.00 | 0.00 | 0.00 | 12 | 992.7 |